Starlink 34136

operational
NORAD ID: 64112 Int'l Des: 2025-110 Owner: SPXS Country: US Constellation: starlink
LEOCIRCULAR

关于 Starlink 34136

正在加载描述...

实时位置

正在加载3D地球...

即将过境

高度历史

Altitude vs Time

uPlot chart will show altitude changes over time

两行轨道根数

1 64112U 25110S 25354.40429003 .00013454 00000-0 46552-3 0 9996
2 64112 53.1595 35.0319 0000959 97.5980 262.5130 15.30200421 33740
Epoch: Dec 20, 2025 • Age: 9 hours

当前状态

高度 494.3 km
速度 7.62 km/s
星下点 -52.97°S, 58.43°W
发射日期 May 23, 2025
运行时间 0.5 years
类型 internet

技术详情

分类 Payload
质量 575.00 kg
干质量 530.00 kg
总质量 575.00 kg
长度 0.30 m
直径 4.10 m
跨度 29.00 m
形状 Box + pan
制造商 SPXS
平台类型 Starlink V2MO
阶段状态 In Orbit
所有者/国家 SPXS/US

大型星座

Loading constellations...